Location: Windsor
(43.2292°N, 89.3015°W)
Time: 18:53:00
(UTC+00:00)

First-Move - Pass Details

Date: 01 July 2022
Orbit: 572 x 658 km, 97.6° (Epoch: 07 August)

Event Time Altitude Azimuth Distance (km) Brightness Sun altitude
Rises 09:12:54 0° 24° (NNE) 2,949 ? -10.4°
Reaches altitude 10° 09:15:24 10° 37° (NE) 2,048 ? -10.1°
Maximum altitude 09:19:10 26° 95° (E) 1,279 ? -9.6°
Drops below altitude 10° 09:22:57 10° 152° (SSE) 2,061 ? -9.1°
Sets 09:25:28 0° 165° (SSE) 2,971 ? -8.8°
